Swansboro, NC

8:31 AM EDT on July 28, 2017 (GMT -0400)
Bogue McAlf

Weather History for KNJM - August, 2013

Change the Weather History Date:

Sunday, August 25, 2013

  Actual Average (KNKT) Record (KNKT)
Temperature  
Mean Temperature 74 °F -  
Max Temperature 82 °F 84 °F 93 °F (2002)
Min Temperature 66 °F 68 °F 33 °F (1996)
Cooling Degree Days 9    
Growing Degree Days 24 (Base 50)    
Moisture  
Dew Point 61 °F    
Average Humidity 64    
Maximum Humidity 81    
Minimum Humidity 47    
Precipitation  
Precipitation 0.00 in - - ()
Sea Level Pressure  
Sea Level Pressure 30.30 in    
Wind  
Wind Speed 8 mph (NNE)    
Max Wind Speed 17 mph    
Max Gust Speed 28 mph    
Visibility 10 miles    
Events      
Averages and records for this station are not official NWS values.
T = Trace of Precipitation, MM = Missing Value Source: NWS Daily Summary

Daily Weather History Graph

Daily Weather History Graph

Search for Another Location

Airport or City:

Trip Planner

Search our weather history database for the weather conditions in past years. The results will help you decide how hot, cold, wet, or windy it might be!

Date:

Astronomy

Aug. 25, 2013 Rise Set
Actual Time 6:36 AM EDT 7:43 PM EDT
Civil Twilight 6:10 AM EDT 8:09 PM EDT
Nautical Twilight 5:39 AM EDT 8:40 PM EDT
Astronomical Twilight 5:06 AM EDT 9:12 PM EDT
Moon 10:28 PM EDT (8/25) 11:21 AM EDT (8/25)
Length of Visible Light 13h 59m
Length of Day
13h 07m
Waning Gibbous, 76% of the Moon is Illuminated
Aug 25
Waning Gibbous
Aug 28
Last Quarter
Sep 5
New
Sep 12
First Quarter
Sep 19
Full

Hourly Weather History & Observations

Time (EDT) Temp. Heat Index Dew Point Humidity Pressure Visibility Wind Dir Wind Speed Gust Speed Precip Events Conditions
12:57 AM 71.1 °F - 62.1 °F 73% 30.27 in 10.0 mi NNE 6.9 mph - N/A   Clear
1:57 AM 70.0 °F - 61.0 °F 73% 30.27 in 10.0 mi NNE 5.8 mph - N/A   Clear
2:57 AM 70.0 °F - 61.0 °F 73% 30.27 in 10.0 mi NNE 6.9 mph - N/A   Clear
3:57 AM 69.1 °F - 60.1 °F 73% 30.26 in 10.0 mi NNE 6.9 mph - N/A   Clear
4:57 AM 68.0 °F - 60.1 °F 76% 30.26 in 10.0 mi North 5.8 mph - N/A   Clear
5:57 AM 66.9 °F - 60.1 °F 79% 30.27 in 10.0 mi North 4.6 mph - N/A   Partly Cloudy
6:57 AM 66.0 °F - 60.1 °F 81% 30.28 in 10.0 mi North 6.9 mph - N/A   Clear
7:57 AM 70.0 °F - 61.0 °F 73% 30.30 in 10.0 mi NNE 9.2 mph - N/A   Clear
8:57 AM 73.9 °F - 61.0 °F 64% 30.33 in 10.0 mi NNE 9.2 mph - N/A   Clear
9:57 AM 75.9 °F - 60.1 °F 58% 30.35 in 10.0 mi NNE 17.3 mph 27.6 mph N/A   Clear
10:57 AM 79.0 °F - 60.1 °F 52% 30.35 in 10.0 mi NNE 8.1 mph 19.6 mph N/A   Clear
11:57 AM 80.1 °F 80.9 °F 60.1 °F 50% 30.34 in 10.0 mi ENE 12.7 mph 18.4 mph N/A   Clear
12:57 PM 82.0 °F 82.7 °F 61.0 °F 49% 30.32 in 10.0 mi NE 12.7 mph 21.9 mph N/A   Clear
1:57 PM 82.9 °F 83.3 °F 61.0 °F 47% 30.31 in 10.0 mi NE 11.5 mph 19.6 mph N/A   Clear
2:57 PM 82.0 °F 82.4 °F 60.1 °F 47% 30.30 in 10.0 mi ENE 13.8 mph 20.7 mph N/A   Scattered Clouds
3:57 PM 82.0 °F 82.7 °F 61.0 °F 49% 30.29 in 10.0 mi NNE 11.5 mph 19.6 mph N/A   Partly Cloudy
4:57 PM 82.0 °F 83.0 °F 62.1 °F 51% 30.27 in 10.0 mi NE 11.5 mph - N/A   Partly Cloudy
5:57 PM 80.1 °F 81.5 °F 63.0 °F 56% 30.29 in 10.0 mi NE 10.4 mph - N/A   Clear
6:57 PM 78.1 °F - 63.0 °F 60% 30.29 in 10.0 mi NE 10.4 mph - N/A   Clear
7:57 PM 75.0 °F - 62.1 °F 64% 30.29 in 10.0 mi NE 6.9 mph - N/A   Clear
8:57 PM 73.0 °F - 62.1 °F 68% 30.30 in 10.0 mi NNE 5.8 mph - N/A   Clear
9:57 PM 71.1 °F - 62.1 °F 73% 30.29 in 10.0 mi NNE 4.6 mph - N/A   Clear
10:57 PM 69.1 °F - 61.0 °F 75% 30.31 in 10.0 mi NNE 4.6 mph - N/A   Clear
11:57 PM 66.9 °F - 60.1 °F 79% 30.30 in 10.0 mi North 4.6 mph - N/A   Clear